Location: Hamburg
(53.5500°N, 10.0000°E)
Time: 08:59:14
(UTC+02:00)

A-11 Canister half - All Passes

Search period start: 20 April 2018 00:00
Search period end: 30 April 2018 00:00
Orbit: 1525 x 1684 km, 47.3° (Epoch: 19 April)

Date Brightness Start Highest point End Pass type
(mag) Time Alt. Az. Time Alt. Az. Time Alt. Az.
20 Apr - 01:19:49 10° SSW 01:28:03 30° SE 01:36:24 10° E visible
20 Apr - 03:22:01 10° SW 03:31:44 55° SSE 03:41:30 10° E visible
20 Apr - 05:26:14 10° W 05:36:09 61° S 05:46:01 10° ESE visible
20 Apr - 07:31:01 10° W 07:40:14 41° SSW 07:49:19 10° SE daylight
20 Apr - 09:37:32 10° W 09:43:08 17° SW 09:48:40 10° SSW daylight
21 Apr - 00:58:24 10° SSW 01:06:31 29° SE 01:14:43 10° E visible
21 Apr - 03:00:28 10° SW 03:10:07 54° SSE 03:19:53 10° E visible
21 Apr - 05:04:37 10° W 05:14:32 61° S 05:24:26 10° ESE visible
21 Apr - 07:09:22 10° W 07:18:39 42° SSW 07:27:49 10° SE daylight
21 Apr - 09:15:42 10° W 09:21:37 18° SW 09:27:30 10° SSW daylight
22 Apr - 00:37:01 10° SSW 00:44:58 28° SE 00:53:02 10° E visible
22 Apr - 02:38:54 10° SW 02:48:32 53° SSE 02:58:16 10° E visible
22 Apr - 04:43:00 10° W 04:52:55 62° S 05:02:50 10° ESE visible
22 Apr - 06:47:44 10° W 06:57:05 44° SSW 07:06:20 10° SE daylight
22 Apr - 08:53:52 10° W 09:00:07 19° SW 09:06:18 10° SSW daylight
23 Apr - 00:15:38 10° S 00:23:26 27° SE 00:31:21 10° E visible
23 Apr - 02:17:21 10° SW 02:26:56 52° SSE 02:36:38 10° E visible
23 Apr - 04:21:24 10° W 04:31:18 62° S 04:41:14 10° ESE visible
23 Apr - 06:26:06 10° W 06:35:30 45° SSW 06:44:49 10° SE daylight
23 Apr - 08:32:05 10° W 08:38:36 20° SW 08:45:03 10° S daylight
23 Apr - 23:54:17 10° S 00:01:53 26° SE 00:09:38 10° E visible
24 Apr - 01:55:49 10° SW 02:05:20 51° SSE 02:15:01 10° E visible
24 Apr - 03:59:47 10° W 04:09:41 62° S 04:19:38 10° ESE visible
24 Apr - 06:04:28 10° W 06:13:55 46° SSW 06:23:18 10° SE daylight
24 Apr - 08:10:19 10° W 08:17:04 21° SW 08:23:48 10° S daylight
24 Apr - 23:32:56 10° S 23:40:22 25° SE 23:47:56 10° E visible
25 Apr - 01:34:17 10° SW 01:43:45 50° SSE 01:53:22 10° E visible
25 Apr - 03:38:11 10° WSW 03:48:04 62° S 03:58:02 10° ESE visible
25 Apr - 05:42:50 10° W 05:52:20 47° SSW 06:01:46 10° SE daylight
25 Apr - 07:48:34 10° W 07:55:34 22° SW 08:02:30 10° S daylight
25 Apr - 23:11:36 10° S 23:18:51 24° SE 23:26:11 10° E visible
26 Apr - 01:12:45 10° SW 01:22:09 49° SSE 01:31:44 10° E visible
26 Apr - 03:16:36 10° WSW 03:26:27 62° S 03:36:24 10° ESE visible
26 Apr - 05:21:13 10° W 05:30:44 48° SSW 05:40:14 10° SE daylight
26 Apr - 07:26:49 10° W 07:34:02 23° SW 07:41:12 10° S daylight
26 Apr - 22:50:17 10° S 22:57:20 23° SE 23:04:27 10° E visible
27 Apr - 00:51:14 10° SW 01:00:34 48° SSE 01:10:06 10° E visible
27 Apr - 02:55:00 10° WSW 03:04:50 62° S 03:14:48 10° ESE visible
27 Apr - 04:59:35 10° W 05:09:09 49° SSW 05:18:42 10° SE visible
27 Apr - 07:05:05 10° W 07:12:30 24° SW 07:19:53 10° S daylight
27 Apr - 22:29:00 10° S 22:35:48 21° SE 22:42:43 10° E visible
28 Apr - 00:29:42 10° SW 00:38:59 47° SSE 00:48:28 10° E visible
28 Apr - 02:33:24 10° WSW 02:43:13 62° S 02:53:12 10° ESE visible
28 Apr - 04:37:58 10° W 04:47:33 50° SSW 04:57:09 10° SE visible
28 Apr - 06:43:23 10° W 06:50:58 25° SW 06:58:32 10° S daylight
28 Apr - 22:07:43 10° S 22:14:18 20° SE 22:20:57 10° E visible
29 Apr - 00:08:12 10° SW 00:17:24 46° SSE 00:26:49 10° E visible
29 Apr - 02:11:48 10° WSW 02:21:37 62° S 02:31:34 10° E visible
29 Apr - 04:16:21 10° W 04:25:58 51° SSW 04:35:36 10° SE visible
29 Apr - 06:21:40 10° W 06:29:26 26° SW 06:37:10 10° S daylight
29 Apr - 21:46:29 10° S 21:52:46 19° SE 21:59:10 10° E visible
